EW3533 Weather Reports


Display with metric or nautical units.
time (UTC)temp
F
wind
direction
speed
MPH
gust
MPH
rain 1hr
in
rain 24hr
in
rain mn
in
humidity
%
barometer
mb
20260905091536 65 74 0.0 2.0 0.00 0.02 0.00 93 1014.1
20260905090035 65 74 0.0 2.0 0.00 0.02 0.00 93 1014.2
20260905084534 65 74 0.0 2.0 0.00 0.02 0.00 93 1014.0
20260905083034 65 74 0.0 1.0 0.00 0.02 0.00 93 1014.0
20260905081533 65 74 0.0 1.0 0.00 0.02 0.00 93 1014.1
20260905080034 65 74 0.0 2.0 0.00 0.02 0.00 93 1013.7
20260905074531 65 74 1.0 3.0 0.00 0.02 0.00 93 1013.6
20260905073036 65 75 0.0 2.0 0.00 0.02 0.00 93 1013.4
20260905071530 65 75 0.0 2.0 0.00 0.02 0.00 93 1013.3
20260905070045 65 75 1.0 2.0 0.00 0.02 0.00 93 1013.2
20260905064539 65 75 0.0 2.0 0.00 0.02 0.00 93 1013.4
20260905063025 64 75 0.0 3.0 0.00 0.02 0.00 93 1013.7
20260905061524 64 88 0.0 2.0 0.00 0.02 0.00 93 1013.9
20260905060025 64 88 0.0 2.0 0.00 0.02 0.00 93 1014.1
20260905054533 64 88 0.0 2.0 0.00 0.02 0.00 93 1014.2
20260905053020 64 88 0.0 0.0 0.00 0.02 0.00 92 1014.0
20260905051533 64 88 0.0 0.0 0.00 0.02 0.00 92 1014.0
20260905050019 64 88 0.0 2.0 0.00 0.02 0.00 92 1013.9
20260905044518 64 88 0.0 2.0 0.00 0.02 0.00 92 1013.8
20260905043016 64 88 0.0 2.0 0.00 0.02 0.00 92 1014.1
20260905041515 65 88 0.0 0.0 0.00 0.02 0.00 92 1013.9
20260905040018 65 88 0.0 0.0 0.00 0.02 0.00 91 1014.1
20260905034523 65 88 0.0 0.0 0.00 0.02 0.02 91 1014.2
20260905033016 65 88 0.0 2.0 0.00 0.02 0.02 92 1014.2
20260905031508 65 88 1.0 3.0 0.00 0.02 0.02 91 1014.0
20260905030006 66 88 0.0 2.0 0.00 0.02 0.02 91 1014.1
20260905024507 66 88 0.0 2.0 0.00 0.02 0.02 91 1014.3
20260905023004 67 88 0.0 2.0 0.00 0.02 0.02 90 1014.4
20260905021502 68 88 0.0 2.0 0.00 0.02 0.02 90 1014.5
20260905020106 68 88 0.0 2.0 0.00 0.02 0.02 89 1014.4
20260905014601 69 88 1.0 4.0 0.00 0.02 0.02 90 1014.4
20260905013100 70 50 1.0 5.0 0.00 0.02 0.02 90 1014.5
20260905011601 70 53 2.0 5.0 0.00 0.02 0.02 90 1014.4
20260905010059 71 69 1.0 3.0 0.00 0.02 0.02 90 1014.2
20260905004558 71 69 1.0 3.0 0.00 0.02 0.02 89 1014.0
20260905003059 71 69 1.0 3.0 0.00 0.02 0.02 89 1013.9
20260905001606 72 69 0.0 3.0 0.00 0.02 0.02 89 1013.7
20260905000100 72 69 1.0 4.0 0.00 0.02 0.02 88 1013.5
20260904234605 73 80 0.0 3.0 0.00 0.02 0.02 88 1013.5
20260904233056 73 87 1.0 3.0 0.00 0.02 0.02 87 1013.4
20260904231554 74 37 2.0 5.0 0.00 0.02 0.02 86 1013.2
20260904230054 74 84 1.0 8.0 0.00 0.02 0.02 86 1013.0
20260904224552 74 56 3.0 10.0 0.00 0.02 0.02 86 1012.8
20260904223056 75 39 3.0 6.0 0.00 0.02 0.02 86 1012.8
20260904221555 75 31 2.0 7.0 0.00 0.02 0.02 86 1012.7
20260904220106 75 31 2.0 8.0 0.00 0.02 0.02 86 1012.6
20260904214549 75 355 2.0 10.0 0.00 0.02 0.02 86 1012.5
20260904213048 76 5 5.0 10.0 0.00 0.02 0.02 85 1012.5
20260904211554 76 10 4.0 11.0 0.00 0.02 0.02 85 1012.3
20260904210057 77 19 6.0 12.0 0.00 0.02 0.02 84 1012.3
20260904204546 77 317 8.0 12.0 0.00 0.06 0.02 84 1012.5
20260904203046 78 335 5.0 14.0 0.00 0.06 0.02 83 1012.3
20260904201551 79 321 2.0 5.0 0.00 0.06 0.02 81 1012.4
20260904200105 79 273 1.0 4.0 0.00 0.06 0.02 80 1012.4
20260904194622 79 227 2.0 9.0 0.00 0.13 0.02 80 1012.6
20260904193043 79 221 2.0 5.0 0.00 0.13 0.02 82 1012.6
20260904191537 78 198 0.0 3.0 0.00 0.13 0.02 83 1012.8
20260904190041 78 196 1.0 4.0 0.00 0.13 0.02 84 1012.7
20260904184532 77 190 2.0 4.0 0.00 0.66 0.02 84 1012.7
20260904183030 77 190 0.0 2.0 0.00 0.66 0.02 87 1012.8
20260904181527 76 190 1.0 3.0 0.00 0.66 0.02 88 1013.0
20260904180025 75 190 0.0 2.0 0.00 0.66 0.02 90 1013.0
20260904174523 75 190 0.0 2.0 0.00 0.67 0.02 92 1013.0
20260904173030 74 190 1.0 3.0 0.00 0.67 0.02 93 1013.0
20260904171525 73 190 0.0 3.0 0.00 0.67 0.02 94 1013.2
20260904170015 73 191 1.0 4.0 0.00 0.67 0.02 94 1013.2
20260904164511 73 196 1.0 4.0 0.00 0.68 0.02 95 1013.2
20260904163011 72 199 1.0 3.0 0.00 0.68 0.02 95 1013.3
20260904161509 72 202 1.0 3.0 0.00 0.68 0.02 95 1013.8
20260904160005 72 148 1.0 5.0 0.00 0.68 0.02 95 1014.3
20260904154503 72 147 1.0 3.0 0.00 0.68 0.02 95 1014.3
20260904153003 71 146 0.0 2.0 0.00 0.68 0.02 95 1014.2
20260904151610 71 146 0.0 2.0 0.00 0.68 0.02 95 1014.3
20260904150057 70 146 0.0 4.0 0.00 0.68 0.02 95 1014.5
20260904144555 70 137 1.0 3.0 0.00 0.68 0.02 95 1014.3
20260904143053 69 137 0.0 3.0 0.01 0.68 0.02 95 1014.3
20260904141616 69 136 2.0 4.0 0.01 0.68 0.02 95 1014.1
20260904140103 68 205 3.0 5.0 0.01 0.68 0.02 95 1013.8
20260904134556 68 211 1.0 4.0 0.01 0.68 0.02 95 1014.4
20260904133106 68 212 0.0 4.0 0.00 0.67 0.01 95 1014.7
20260904131600 68 212 0.0 1.0 0.00 0.67 0.01 95 1014.7
20260904130048 68 212 0.0 3.0 0.01 0.67 0.01 95 1015.0
20260904124546 67 212 0.0 3.0 0.01 0.67 0.01 95 1015.0
20260904123045 68 212 1.0 3.0 0.01 0.67 0.01 95 1014.5
20260904121544 68 212 0.0 6.0 0.01 0.67 0.01 95 1014.4
20260904120046 68 212 2.0 4.0 0.00 0.66 0.00 95 1014.7
20260904114542 68 208 4.0 6.0 0.00 0.66 0.00 95 1014.5
20260904113043 68 186 0.0 1.0 0.00 0.66 0.00 95 1013.9
20260904111541 68 186 1.0 3.0 0.00 0.66 0.00 95 1013.2
20260904110041 68 186 1.0 3.0 0.00 0.66 0.00 95 1013.2
20260904104541 68 186 0.0 2.0 0.00 0.66 0.00 95 1013.1
20260904103048 68 186 1.0 3.0 0.00 0.66 0.00 95 1012.8
20260904101540 68 186 1.0 2.0 0.00 0.66 0.00 95 1013.1
20260904100038 67 186 0.0 1.0 0.00 0.66 0.00 95 1013.3
20260904094536 67 186 0.0 3.0 0.00 0.66 0.00 95 1013.0
20260904093034 67 186 1.0 3.0 0.00 0.66 0.00 95 1013.1